Location: Camp Creek
(33.9000°N, 111.8167°W)
Time: 06:36:24
(UTC-07:00)

DELTA 2 R/B (1) - Visible Passes

Search period start: 25 March 2017 00:00
Search period end: 04 April 2017 00:00
Orbit: 791 x 802 km, 39.6° (Epoch: 23 March)

Date Brightness Start Highest point End Pass type
(mag) Time Alt. Az. Time Alt. Az. Time Alt. Az.
25 Mar 4.9 03:32:03 36° ENE 03:32:03 36° ENE 03:35:17 10° ENE visible
25 Mar 4.1 05:12:48 20° WNW 05:16:27 49° N 05:21:50 10° ENE visible
26 Mar 5.8 03:02:43 21° ENE 03:02:43 21° ENE 03:04:27 10° ENE visible
26 Mar 4.1 04:43:29 33° WNW 04:45:35 50° N 04:50:59 10° ENE visible
27 Mar 6.4 02:33:23 11° ENE 02:33:23 11° ENE 02:33:37 10° ENE visible
27 Mar 3.9 04:14:09 49° NNW 04:14:44 52° N 04:20:09 10° ENE visible
27 Mar 4.3 05:56:21 10° WNW 06:01:46 50° N 06:07:09 10° E visible
28 Mar 4.3 03:44:48 48° NNE 03:44:48 48° NNE 03:49:18 10° ENE visible
28 Mar 4.3 05:25:34 10° WNW 05:30:54 49° N 05:36:16 10° E visible
29 Mar 5.2 03:15:29 31° NE 03:15:29 31° NE 03:18:28 10° ENE visible
29 Mar 4.3 04:56:14 19° WNW 05:00:02 48° N 05:05:24 10° E visible
30 Mar 5.9 02:46:09 18° ENE 02:46:09 18° ENE 02:47:38 10° ENE visible
30 Mar 4.3 04:26:56 31° NW 04:29:11 48° N 04:34:32 10° E visible
31 Mar 4.2 03:57:39 45° NNW 03:58:19 47° N 04:03:39 10° ENE visible
31 Mar 3.7 05:39:35 10° WNW 05:45:09 82° NNE 05:50:42 10° ESE visible
01 Apr 4.6 03:28:25 42° NNE 03:28:25 42° NNE 03:32:47 10° ENE visible
01 Apr 3.7 05:09:12 12° WNW 05:14:19 77° NNE 05:19:52 10° ESE visible
02 Apr 5.4 02:59:16 27° ENE 02:59:16 27° ENE 03:01:55 10° ENE visible
02 Apr 3.7 04:40:03 24° WNW 04:43:28 73° NNE 04:49:01 10° ESE visible
03 Apr 6.2 02:30:13 14° ENE 02:30:13 14° ENE 02:31:03 10° ENE visible
03 Apr 3.7 04:11:00 45° NW 04:12:38 70° NNE 04:18:10 10° ESE visible
